| time (UTC) | temp F | wind direction | speed MPH | gust MPH | rain 1hr in | rain 24hr in | rain mn in | humidity % | barometer mb |
| 20260504130429 | 57 | 108 | 5.0 | 9.0 | 0.00 | 0.00 | 0.00 | 63 | 1015.1 |
| 20260504110311 | 41 | 151 | 0.0 | 0.0 | 0.00 | 0.00 | 0.00 | 95 | 1014.7 |
| 20260504100228 | 40 | 162 | 0.0 | 0.0 | 0.00 | 0.00 | 0.00 | 94 | 1014.8 |
| 20260504081622 | 42 | 162 | 0.0 | 0.0 | 0.00 | 0.00 | 0.00 | 90 | 1015.7 |
| 20260504081118 | 42 | 162 | 0.0 | 0.0 | 0.00 | 0.00 | 0.00 | 90 | 1015.5 |
| 20260504080615 | 42 | 161 | 0.0 | 0.0 | 0.00 | 0.00 | 0.00 | 89 | 1015.5 |
| 20260504080111 | 42 | 163 | 0.0 | 0.0 | 0.00 | 0.00 | 0.00 | 89 | 1015.8 |
| 20260504050427 | 47 | 197 | 0.0 | 0.0 | 0.00 | 0.00 | 0.00 | 87 | 1017.1 |
| 20260504045919 | 47 | 246 | 0.0 | 1.0 | 0.00 | 0.00 | 0.00 | 86 | 1017.0 |
| 20260504045414 | 47 | 3 | 0.0 | 0.0 | 0.00 | 0.00 | 0.00 | 87 | 1017.2 |
| 20260504044911 | 47 | 3 | 0.0 | 0.0 | 0.00 | 0.00 | 0.00 | 87 | 1017.1 |
| 20260504044408 | 47 | 3 | 0.0 | 0.0 | 0.00 | 0.00 | 0.00 | 87 | 1017.0 |
| 20260504043906 | 47 | 3 | 0.0 | 0.0 | 0.00 | 0.00 | 0.00 | 87 | 1017.2 |
| 20260504043402 | 47 | 4 | 0.0 | 0.0 | 0.00 | 0.00 | 0.00 | 85 | 1017.1 |
| 20260504042900 | 47 | 3 | 0.0 | 0.0 | 0.00 | 0.00 | 0.00 | 86 | 1017.1 |
| 20260504042356 | 47 | 3 | 0.0 | 0.0 | 0.00 | 0.00 | 0.00 | 86 | 1017.0 |
| 20260504041852 | 47 | 3 | 0.0 | 0.0 | 0.00 | 0.00 | 0.00 | 86 | 1017.3 |
| 20260504041348 | 47 | 2 | 0.0 | 1.0 | 0.00 | 0.00 | 0.00 | 85 | 1017.2 |
| 20260504040845 | 47 | 4 | 0.0 | 0.0 | 0.00 | 0.00 | 0.00 | 84 | 1017.2 |
| 20260504040343 | 47 | 4 | 0.0 | 0.0 | 0.00 | 0.00 | 0.00 | 83 | 1016.9 |
| 20260504035838 | 47 | 4 | 0.0 | 0.0 | 0.00 | 0.00 | 0.00 | 83 | 1017.0 |
| 20260504035337 | 47 | 4 | 0.0 | 0.0 | 0.00 | 0.00 | 0.00 | 83 | 1017.0 |
| 20260504034833 | 47 | 4 | 0.0 | 0.0 | 0.00 | 0.00 | 0.00 | 82 | 1017.0 |
| 20260504034330 | 47 | 5 | 1.0 | 1.0 | 0.00 | 0.00 | 0.00 | 80 | 1017.0 |
| 20260504033827 | 47 | 4 | 0.0 | 0.0 | 0.00 | 0.00 | 0.00 | 80 | 1016.8 |
| 20260504033325 | 47 | 295 | 0.0 | 0.0 | 0.00 | 0.00 | 0.00 | 81 | 1017.1 |
| 20260504032821 | 47 | 295 | 0.0 | 0.0 | 0.00 | 0.00 | 0.00 | 81 | 1017.0 |
| 20260504032319 | 47 | 295 | 0.0 | 0.0 | 0.00 | 0.00 | 0.00 | 81 | 1016.9 |
| 20260504031815 | 47 | 295 | 0.0 | 0.0 | 0.00 | 0.00 | 0.00 | 81 | 1017.0 |
| 20260504031313 | 47 | 295 | 0.0 | 0.0 | 0.00 | 0.00 | 0.00 | 79 | 1017.1 |
| 20260504030809 | 47 | 295 | 0.0 | 0.0 | 0.00 | 0.00 | 0.00 | 80 | 1017.2 |
| 20260504030306 | 47 | 295 | 0.0 | 0.0 | 0.00 | 0.00 | 0.00 | 79 | 1017.1 |
| 20260504025802 | 47 | 295 | 0.0 | 0.0 | 0.00 | 0.00 | 0.00 | 80 | 1017.2 |
| 20260504025259 | 47 | 295 | 0.0 | 0.0 | 0.00 | 0.00 | 0.00 | 80 | 1017.1 |
| 20260504024756 | 47 | 295 | 0.0 | 0.0 | 0.00 | 0.00 | 0.00 | 78 | 1016.8 |
| 20260504024253 | 47 | 295 | 0.0 | 0.0 | 0.00 | 0.00 | 0.00 | 77 | 1017.1 |
| 20260504023749 | 47 | 295 | 0.0 | 0.0 | 0.00 | 0.00 | 0.00 | 78 | 1017.1 |
| 20260504023246 | 47 | 295 | 0.0 | 0.0 | 0.00 | 0.00 | 0.00 | 77 | 1017.0 |
| 20260504022742 | 47 | 295 | 0.0 | 0.0 | 0.00 | 0.00 | 0.00 | 76 | 1017.0 |
| 20260504022238 | 47 | 295 | 0.0 | 0.0 | 0.00 | 0.00 | 0.00 | 76 | 1016.8 |
| 20260504021735 | 47 | 295 | 0.0 | 0.0 | 0.00 | 0.00 | 0.00 | 78 | 1016.8 |
| 20260504021233 | 47 | 295 | 0.0 | 0.0 | 0.00 | 0.00 | 0.00 | 76 | 1016.7 |
| 20260504020729 | 47 | 295 | 0.0 | 0.0 | 0.00 | 0.00 | 0.00 | 77 | 1016.5 |
| 20260504020226 | 47 | 295 | 0.0 | 0.0 | 0.00 | 0.00 | 0.00 | 77 | 1016.6 |
| 20260504015722 | 47 | 295 | 0.0 | 0.0 | 0.00 | 0.00 | 0.00 | 77 | 1016.5 |
| 20260504015219 | 47 | 295 | 0.0 | 0.0 | 0.00 | 0.00 | 0.00 | 76 | 1016.6 |
| 20260504014714 | 47 | 295 | 0.0 | 0.0 | 0.00 | 0.00 | 0.00 | 75 | 1016.5 |
| 20260504014211 | 47 | 295 | 0.0 | 0.0 | 0.00 | 0.00 | 0.00 | 75 | 1016.5 |
| 20260504013709 | 47 | 295 | 0.0 | 0.0 | 0.00 | 0.00 | 0.00 | 75 | 1016.5 |
| 20260504013206 | 47 | 295 | 0.0 | 0.0 | 0.00 | 0.00 | 0.00 | 75 | 1016.4 |
| 20260504012703 | 47 | 295 | 0.0 | 0.0 | 0.00 | 0.00 | 0.00 | 74 | 1016.3 |
| 20260504012201 | 47 | 297 | 0.0 | 0.0 | 0.00 | 0.00 | 0.00 | 76 | 1016.5 |
| 20260504011658 | 46 | 297 | 0.0 | 0.0 | 0.00 | 0.00 | 0.00 | 76 | 1016.6 |
| 20260504011154 | 46 | 297 | 0.0 | 0.0 | 0.00 | 0.00 | 0.00 | 75 | 1016.6 |
| 20260504010650 | 47 | 297 | 0.0 | 0.0 | 0.00 | 0.00 | 0.00 | 74 | 1016.6 |
| 20260504010145 | 47 | 297 | 0.0 | 0.0 | 0.00 | 0.00 | 0.00 | 74 | 1016.4 |
| 20260504005643 | 47 | 297 | 0.0 | 0.0 | 0.00 | 0.00 | 0.00 | 74 | 1016.7 |
| 20260504005139 | 48 | 297 | 0.0 | 0.0 | 0.00 | 0.00 | 0.00 | 72 | 1016.5 |
| 20260504004638 | 48 | 297 | 0.0 | 0.0 | 0.00 | 0.00 | 0.00 | 72 | 1016.5 |
| 20260504004135 | 49 | 297 | 0.0 | 0.0 | 0.00 | 0.00 | 0.00 | 69 | 1016.4 |
| 20260504003631 | 49 | 300 | 0.0 | 0.0 | 0.00 | 0.00 | 0.00 | 69 | 1016.4 |
| 20260504003127 | 49 | 304 | 0.0 | 0.0 | 0.00 | 0.00 | 0.00 | 70 | 1016.5 |
| 20260504002624 | 49 | 304 | 0.0 | 0.0 | 0.00 | 0.00 | 0.00 | 68 | 1016.3 |
| 20260504002122 | 50 | 305 | 0.0 | 0.0 | 0.00 | 0.00 | 0.00 | 68 | 1016.3 |
| 20260504001620 | 50 | 305 | 0.0 | 0.0 | 0.00 | 0.00 | 0.00 | 67 | 1016.4 |
| 20260504001115 | 51 | 305 | 0.0 | 0.0 | 0.00 | 0.00 | 0.00 | 65 | 1016.5 |
| 20260504000613 | 51 | 305 | 0.0 | 0.0 | 0.00 | 0.00 | 0.00 | 64 | 1016.4 |
| 20260504000110 | 52 | 305 | 0.0 | 0.0 | 0.00 | 0.00 | 0.00 | 63 | 1016.3 |
| 20260503235608 | 53 | 322 | 0.0 | 0.0 | 0.00 | 0.00 | 0.00 | 60 | 1016.2 |
| 20260503235105 | 53 | 322 | 0.0 | 0.0 | 0.00 | 0.00 | 0.00 | 58 | 1016.4 |
| 20260503234603 | 53 | 322 | 0.0 | 0.0 | 0.00 | 0.00 | 0.00 | 58 | 1016.2 |
| 20260503234100 | 54 | 322 | 0.0 | 0.0 | 0.00 | 0.00 | 0.00 | 56 | 1016.3 |
| 20260503233557 | 55 | 323 | 0.0 | 0.0 | 0.00 | 0.00 | 0.00 | 54 | 1016.3 |
| 20260503233053 | 56 | 353 | 0.0 | 0.0 | 0.00 | 0.00 | 0.00 | 55 | 1016.5 |
| 20260503232550 | 56 | 285 | 1.0 | 2.0 | 0.00 | 0.00 | 0.00 | 54 | 1016.5 |
| 20260503232047 | 58 | 141 | 0.0 | 0.0 | 0.00 | 0.00 | 0.00 | 44 | 1016.6 |
| 20260503231545 | 57 | 100 | 2.0 | 2.0 | 0.00 | 0.00 | 0.00 | 37 | 1016.4 |
| 20260503231041 | 59 | 89 | 2.0 | 3.0 | 0.00 | 0.00 | 0.00 | 40 | 1016.9 |
| 20260503230538 | 59 | 77 | 0.0 | 3.0 | 0.00 | 0.00 | 0.00 | 36 | 1016.7 |
| 20260503230036 | 60 | 265 | 0.0 | 2.0 | 0.00 | 0.00 | 0.00 | 37 | 1016.7 |
| 20260503225532 | 60 | 105 | 1.0 | 2.0 | 0.00 | 0.00 | 0.00 | 34 | 1016.9 |
| 20260503225027 | 60 | 205 | 1.0 | 6.0 | 0.00 | 0.00 | 0.00 | 37 | 1016.8 |
| 20260503224525 | 61 | 219 | 0.0 | 1.0 | 0.00 | 0.00 | 0.00 | 33 | 1016.8 |
| 20260503224023 | 61 | 98 | 3.0 | 4.0 | 0.00 | 0.00 | 0.00 | 33 | 1016.9 |
| 20260503223521 | 60 | 37 | 0.0 | 1.0 | 0.00 | 0.00 | 0.00 | 33 | 1017.0 |
| 20260503223016 | 61 | 339 | 1.0 | 2.0 | 0.00 | 0.00 | 0.00 | 32 | 1016.8 |
| 20260503222514 | 61 | 66 | 1.0 | 3.0 | 0.00 | 0.00 | 0.00 | 34 | 1016.7 |
| 20260503222012 | 61 | 88 | 1.0 | 2.0 | 0.00 | 0.00 | 0.00 | 31 | 1016.9 |
| 20260503221510 | 61 | 104 | 4.0 | 7.0 | 0.00 | 0.00 | 0.00 | 30 | 1016.9 |
| 20260503221007 | 62 | 91 | 3.0 | 4.0 | 0.00 | 0.00 | 0.00 | 33 | 1016.8 |
| 20260503220503 | 61 | 88 | 6.0 | 10.0 | 0.00 | 0.00 | 0.00 | 32 | 1017.0 |
| 20260503220000 | 62 | 126 | 0.0 | 0.0 | 0.00 | 0.00 | 0.00 | 31 | 1017.1 |
| 20260503215457 | 62 | 78 | 3.0 | 6.0 | 0.00 | 0.00 | 0.00 | 33 | 1017.0 |
| 20260503214954 | 62 | 98 | 2.0 | 4.0 | 0.00 | 0.00 | 0.00 | 32 | 1016.9 |
| 20260503214452 | 62 | 260 | 0.0 | 1.0 | 0.00 | 0.00 | 0.00 | 32 | 1017.1 |
| 20260503213949 | 63 | 188 | 4.0 | 4.0 | 0.00 | 0.00 | 0.00 | 32 | 1017.3 |
| 20260503213448 | 62 | 70 | 2.0 | 2.0 | 0.00 | 0.00 | 0.00 | 35 | 1017.3 |
| 20260503212943 | 63 | 91 | 0.0 | 2.0 | 0.00 | 0.00 | 0.00 | 30 | 1017.1 |
| 20260503212441 | 64 | 154 | 2.0 | 11.0 | 0.00 | 0.00 | 0.00 | 30 | 1017.2 |
| 20260503211938 | 64 | 40 | 1.0 | 2.0 | 0.00 | 0.00 | 0.00 | 29 | 1017.0 |
| 20260503211435 | 64 | 224 | 2.0 | 3.0 | 0.00 | 0.00 | 0.00 | 29 | 1017.0 |
| 20260503210930 | 63 | 111 | 1.0 | 4.0 | 0.00 | 0.00 | 0.00 | 30 | 1017.2 |
| 20260503210427 | 63 | 206 | 2.0 | 8.0 | 0.00 | 0.00 | 0.00 | 32 | 1017.3 |
| 20260503205922 | 63 | 207 | 2.0 | 7.0 | 0.00 | 0.00 | 0.00 | 33 | 1017.4 |
| 20260503205420 | 63 | 189 | 1.0 | 6.0 | 0.00 | 0.00 | 0.00 | 30 | 1017.4 |
| 20260503204916 | 62 | 81 | 2.0 | 3.0 | 0.00 | 0.00 | 0.00 | 34 | 1017.3 |
| 20260503204413 | 63 | 83 | 3.0 | 6.0 | 0.00 | 0.00 | 0.00 | 30 | 1017.4 |
| 20260503203910 | 63 | 88 | 3.0 | 4.0 | 0.00 | 0.00 | 0.00 | 32 | 1017.5 |
| 20260503203408 | 62 | 180 | 2.0 | 3.0 | 0.00 | 0.00 | 0.00 | 32 | 1017.8 |
| 20260503202904 | 63 | 92 | 4.0 | 6.0 | 0.00 | 0.00 | 0.00 | 30 | 1017.9 |
| 20260503202403 | 63 | 125 | 3.0 | 6.0 | 0.00 | 0.00 | 0.00 | 30 | 1018.0 |
| 20260503201901 | 63 | 218 | 2.0 | 8.0 | 0.00 | 0.00 | 0.00 | 32 | 1018.0 |
| 20260503201357 | 64 | 126 | 1.0 | 3.0 | 0.00 | 0.00 | 0.00 | 31 | 1018.0 |
| 20260503200855 | 63 | 97 | 5.0 | 7.0 | 0.00 | 0.00 | 0.00 | 29 | 1018.2 |
| 20260503200350 | 62 | 13 | 1.0 | 4.0 | 0.00 | 0.00 | 0.00 | 31 | 1018.1 |
| 20260503195848 | 63 | 88 | 2.0 | 3.0 | 0.00 | 0.00 | 0.00 | 29 | 1018.2 |
| 20260503195344 | 63 | 103 | 3.0 | 4.0 | 0.00 | 0.00 | 0.00 | 30 | 1018.3 |
| 20260503194842 | 61 | 132 | 1.0 | 3.0 | 0.00 | 0.00 | 0.00 | 36 | 1018.5 |
| 20260503194338 | 63 | 303 | 2.0 | 3.0 | 0.00 | 0.00 | 0.00 | 31 | 1018.7 |
| 20260503193834 | 63 | 236 | 2.0 | 4.0 | 0.00 | 0.00 | 0.00 | 33 | 1018.6 |
| 20260503193330 | 62 | 62 | 0.0 | 3.0 | 0.00 | 0.00 | 0.00 | 33 | 1018.6 |
| 20260503192826 | 62 | 87 | 2.0 | 3.0 | 0.00 | 0.00 | 0.00 | 34 | 1019.0 |
| 20260503192322 | 62 | 39 | 1.0 | 2.0 | 0.00 | 0.00 | 0.00 | 31 | 1019.0 |
| 20260503191818 | 63 | 193 | 1.0 | 9.0 | 0.00 | 0.00 | 0.00 | 32 | 1019.0 |
| 20260503191315 | 62 | 299 | 2.0 | 2.0 | 0.00 | 0.00 | 0.00 | 31 | 1019.0 |
| 20260503190812 | 62 | 227 | 0.0 | 0.0 | 0.00 | 0.00 | 0.00 | 31 | 1019.2 |
| 20260503190309 | 59 | 86 | 4.0 | 4.0 | 0.00 | 0.00 | 0.00 | 33 | 1019.3 |
| 20260503185806 | 61 | 84 | 2.0 | 3.0 | 0.00 | 0.00 | 0.00 | 31 | 1019.4 |
| 20260503185301 | 61 | 231 | 0.0 | 2.0 | 0.00 | 0.00 | 0.00 | 39 | 1019.5 |
| 20260503184801 | 60 | 89 | 5.0 | 9.0 | 0.00 | 0.00 | 0.00 | 35 | 1019.8 |
| 20260503184258 | 61 | 149 | 5.0 | 8.0 | 0.00 | 0.00 | 0.00 | 32 | 1019.7 |
| 20260503183753 | 61 | 96 | 5.0 | 6.0 | 0.00 | 0.00 | 0.00 | 30 | 1020.0 |
| 20260503183251 | 61 | 100 | 2.0 | 4.0 | 0.00 | 0.00 | 0.00 | 35 | 1020.0 |
| 20260503182749 | 61 | 194 | 2.0 | 3.0 | 0.00 | 0.00 | 0.00 | 34 | 1020.2 |
| 20260503182248 | 60 | 92 | 2.0 | 8.0 | 0.00 | 0.00 | 0.00 | 34 | 1020.2 |
| 20260503181744 | 59 | 23 | 2.0 | 7.0 | 0.00 | 0.00 | 0.00 | 33 | 1020.1 |
| 20260503181241 | 60 | 92 | 0.0 | 3.0 | 0.00 | 0.00 | 0.00 | 36 | 1020.3 |
| 20260503180737 | 59 | 102 | 2.0 | 2.0 | 0.00 | 0.00 | 0.00 | 35 | 1020.4 |
| 20260503180236 | 61 | 184 | 6.0 | 10.0 | 0.00 | 0.00 | 0.00 | 31 | 1020.4 |
| 20260503175732 | 59 | 247 | 1.0 | 4.0 | 0.00 | 0.00 | 0.00 | 36 | 1020.3 |
| 20260503175230 | 59 | 73 | 0.0 | 3.0 | 0.00 | 0.00 | 0.00 | 38 | 1020.4 |
| 20260503174726 | 59 | 269 | 2.0 | 2.0 | 0.00 | 0.00 | 0.00 | 37 | 1020.2 |
| 20260503174224 | 59 | 238 | 0.0 | 3.0 | 0.00 | 0.00 | 0.00 | 40 | 1020.8 |
| 20260503173719 | 59 | 98 | 0.0 | 1.0 | 0.00 | 0.00 | 0.00 | 33 | 1020.6 |
| 20260503173215 | 59 | 218 | 1.0 | 7.0 | 0.00 | 0.00 | 0.00 | 35 | 1020.8 |
| 20260503172712 | 58 | 67 | 0.0 | 6.0 | 0.00 | 0.00 | 0.00 | 37 | 1020.6 |
| 20260503172209 | 58 | 88 | 5.0 | 8.0 | 0.00 | 0.00 | 0.00 | 34 | 1020.6 |
| 20260503171705 | 59 | 242 | 3.0 | 7.0 | 0.00 | 0.00 | 0.00 | 33 | 1020.8 |
| 20260503171203 | 59 | 120 | 0.0 | 2.0 | 0.00 | 0.00 | 0.00 | 32 | 1020.9 |
| 20260503170700 | 58 | 98 | 2.0 | 2.0 | 0.00 | 0.00 | 0.00 | 34 | 1021.0 |
| 20260503170157 | 57 | 106 | 0.0 | 3.0 | 0.00 | 0.00 | 0.00 | 38 | 1021.2 |
| 20260503160124 | 56 | 30 | 1.0 | 3.0 | 0.00 | 0.00 | 0.00 | 39 | 1022.1 |
| 20260503150553 | 53 | 171 | 1.0 | 2.0 | 0.00 | 0.00 | 0.00 | 42 | 1022.2 |